Tracking 28518 objects as of 2-Mar-2024
HD Live streaming from Space Station
objects crossing your sky now

ORBITERSN1

Track ORBITERSN1 now!
10-day predictions


NORAD ID: 55059
Int'l Code: 2023-001BC
Perigee: 482.9 km
Apogee: 497.3 km
Inclination: 97.4 °
Period: 94.3 minutes
Semi major axis: 6861 km
RCS: Unknown
Launch date: January 3, 2023
Source: United States (US)
Launch site: AIR FORCE EASTERN TEST RANGE (AFETR)
Your satellite tracking list
Your tracking list is empty




NASA's NSSDC Master Catalog

Two Line Element Set (TLE):
1 55059U 23001BC  24061.74819211  .00022746  00000-0  84241-3 0  9999
2 55059  97.4387 124.3933 0010426 178.5629 181.5642 15.27610159 64408
Source of the keplerian elements: AFSPC